This demonstration page uses our WeatherBlox Daily Observations layout. Learn more.

Left ArrowRight Arrow

41.86663, -103.66717

Hourly Observations for July 11, 2018

Temp ( °F °C ) Dew Point ( °F °C ) Humidity (%) Winds ( mph kmh ) Pressure ( in mb ) Visibility ( mi km ) Precip ( " mm )
12:53 am 00:53 Clear 79 26.1 55 12.8 44 44 S 15 24 29.85 1011 10 16.0934 N/A
1:53 am 01:53 Clear 78 25.6 55 12.8 45 45 S 15 24 29.83 1010 10 16.0934 N/A
2:53 am 02:53 Clear 77 25 55 12.8 47 47 SE 7 11 29.83 1010 10 16.0934 N/A
3:53 am 03:53 Clear 74 23.3 56 13.3 54 54 S 3 6 29.83 1010 10 16.0934 N/A
4:53 am 04:53 Clear 71 21.7 56 13.3 59 59 ESE 6 9 29.83 1010 10 16.0934 N/A
5:53 am 05:53 Sunny 70 21.1 57 13.9 64 64 SE 3 6 29.82 1010 10 16.0934 N/A
6:53 am 06:53 Sunny 72 22.2 59 15 64 64 SE 6 9 29.83 1010 10 16.0934 N/A
7:53 am 07:53 Sunny 76 24.4 60 15.6 58 58 E 6 9 29.84 1010 10 16.0934 N/A
8:53 am 08:53 Sunny 82 27.8 59 15 46 46 N N/A 29.86 1011 10 16.0934 N/A
9:53 am 09:53 Sunny 84 28.9 59 15 43 43 VRB 3 6 29.87 1012 10 16.0934 N/A
10:53 am 10:53 Sunny 87 30.6 60 15.6 40 40 SE 7 11 29.86 1011 10 16.0934 N/A
11:53 am 11:53 Sunny 90 32.2 60 15.6 37 37 S 6 9 29.84 1011 10 16.0934 N/A
12:53 pm 12:53 Sunny 94 34.4 56 13.3 28 28 N N/A 29.82 1010 10 16.0934 N/A
1:53 pm 13:53 Sunny 96 35.6 56 13.3 26 26 N N/A 29.82 1010 10 16.0934 N/A
2:53 pm 14:53 Sunny 96 35.6 53 11.7 23 23 VRB 5 7 29.8 1009 10 16.0934 N/A
3:53 pm 15:53 Sunny 97 36.1 54 12.2 24 24 SSE 6 9 29.78 1008 10 16.0934 N/A
4:53 pm 16:53 Sunny 98 36.7 54 12.2 23 23 E 6 9 29.77 1008 10 16.0934 N/A
5:53 pm 17:53 Sunny 96 35.6 57 13.9 27 27 E 9 15 29.77 1008 10 16.0934 N/A
6:53 pm 18:53 Sunny 90 32.2 66 18.9 45 45 NE 18 30 29.78 1009 10 16.0934 N/A
7:53 pm 19:53 Sunny 84 28.9 66 18.9 55 55 NE 18 30 29.81 1009 10 16.0934 N/A
8:53 pm 20:53 Clear 82 27.8 67 19.4 60 60 NE 15 24 29.82 1010 10 16.0934 N/A
9:53 pm 21:53 Clear 80 26.7 68 20 67 67 NE 16 26 29.85 1011 10 16.0934 N/A
10:53 pm 22:53 Clear 77 25 68 20 74 74 NE 9 15 29.87 1011 10 16.0934 N/A
11:53 pm 23:53 Clear 76 24.4 66 18.9 72 72 ENE 7 11 29.87 1012 10 16.0934 N/A

Powered by AerisWeather